カタログに戻る

STARLINK-35091

運用中通信VLEO
NORAD 65640·PAYLOAD·🇺🇸 United States

打ち上げ Sep 18, 2025 から Cape Canaveral Space Force Station

Loading…

次のパス (今後24時間)

TLE

最新Source: CelesTrak SupGP

元期: Sep 14, 2026, 21:31 UTC

1 65640C 25210U   26257.89701389 -.00009695  00000+0 -28650-3 0  2579
2 65640  53.1573 144.1443 0001288  99.8442  28.3326 15.34389398    11

AllMySatでSTARLINK-35091をリアルタイム追跡

Download on the App Store